Weather History for Barrow, AK

Change the Weather History Date:

Saturday, September 14, 2013

  Actual Average Record
Temperature  
Mean Temperature 35 °F 33 °F  
Max Temperature 38 °F 37 °F 53 °F (2006)
Min Temperature 31 °F 30 °F 13 °F (1992)
Degree Days  
Heating Degree Days 30 32  
Month to date heating degree days 398 421  
Since 1 July heating degree days 1807 1975  
Cooling Degree Days 0    
Month to date cooling degree days 0  
Year to date cooling degree days 0  
Moisture  
Dew Point 32 °F    
Average Humidity 0    
Maximum Humidity 0    
Minimum Humidity 0    
Precipitation  
Precipitation 0.04 in 0.03 in 0.22 in (1972)
Month to date precipitation 0.81 0.39  
Year to date precipitation 5.83 3.44  
Snow  
Snow 0.40 in 0.10 in 2.30 in (1972)
Month to date snowfall 0.6 1.4  
Since 1 July snowfall 1.7 2.5  
Since 1 September snowfall 0.6 1.4  
Snow Depth 0.00 in    
Sea Level Pressure  
Sea Level Pressure 29.84 in    
Wind  
Wind Speed 16 mph (WNW)    
Max Wind Speed 25 mph    
Max Gust Speed 31 mph    
Visibility 6 miles    
Events Rain , Snow    
T = Trace of Precipitation, MM = Missing Value Source: NWS Daily Summary

Daily Weather History Graph

Daily Weather History Graph

Search for Another Location

Airport:

Trip Planner

Search our weather history database for the weather conditions in past years. The results will help you decide how hot, cold, wet, or windy it might be!

Date:

Astronomy

Sep. 14, 2013 Rise Set
Actual Time 7:34 AM AKDT 9:08 PM AKDT
Civil Twilight 6:24 AM AKDT 10:16 PM AKDT
Nautical Twilight 4:44 AM AKDT 11:54 PM AKDT
Astronomical Twilight Sun does not rise Sun does not rise
Moon 8:33 PM AKDT (9/14) No Moon Set
Length of Visible Light 15h 51m
Length of Day
13h 33m
Waxing Gibbous, 74% of the Moon is Illuminated
Sep 14
Waxing Gibbous
Sep 19
Full
Sep 26
Last Quarter
Oct 4
New
Oct 11
First Quarter

Hourly Weather History & Observations

Time (AKDT) Temp. Windchill Dew Point Humidity Pressure Visibility Wind Dir Wind Speed Gust Speed Precip Events Conditions
12:19 AM 35.6 °F 29.2 °F 33.8 °F 93% 29.70 in 7.0 mi WSW 8.1 mph - 0.01 in Rain , Snow Light Rain
12:35 AM 33.8 °F 25.8 °F 33.8 °F 100% 29.71 in 7.0 mi WSW 10.4 mph - 0.01 in Rain , Snow Snow
12:53 AM 33.8 °F 25.8 °F 32.9 °F 96% 29.71 in 5.0 mi WSW 10.4 mph - 0.02 in Rain , Snow Snow
1:39 AM 33.8 °F 24.8 °F 33.8 °F 100% 29.71 in 8.0 mi WSW 12.7 mph - 0.01 in Rain , Snow Snow
1:53 AM 33.8 °F 24.8 °F 32.9 °F 96% 29.72 in 7.0 mi WSW 12.7 mph - 0.01 in Rain , Snow Snow
2:08 AM 33.8 °F 23.9 °F 33.8 °F 100% 29.71 in 4.0 mi WSW 15.0 mph - 0.00 in Rain , Snow Snow
2:31 AM 33.8 °F 24.8 °F 32.0 °F 93% 29.72 in 6.0 mi WSW 12.7 mph - 0.00 in Snow Light Snow
2:53 AM 32.9 °F 23.7 °F 32.0 °F 96% 29.73 in 3.0 mi West 12.7 mph - 0.01 in Snow Light Snow
3:07 AM 32.0 °F 21.6 °F 32.0 °F 100% 29.72 in 2.5 mi WSW 15.0 mph - 0.00 in Snow Light Snow
3:16 AM 32.0 °F 21.6 °F 32.0 °F 100% 29.72 in 2.5 mi WSW 15.0 mph - 0.01 in Snow Light Snow
3:53 AM 32.7 °F 21.8 °F 31.8 °F 96% 29.73 in 6.0 mi WSW 17.3 mph - 0.01 in Snow Light Snow
4:05 AM 32.0 °F 21.6 °F 32.0 °F 100% 29.73 in 9.0 mi WSW 15.0 mph - 0.00 in Snow Light Snow
4:37 AM 32.0 °F 21.2 °F 32.0 °F 100% 29.73 in 5.0 mi WSW 16.1 mph - 0.00 in Snow Light Snow
4:53 AM 33.1 °F 21.9 °F 31.8 °F 95% 29.73 in 7.0 mi WSW 18.4 mph - 0.00 in Snow Light Snow
5:28 AM 33.8 °F 22.8 °F 32.0 °F 93% 29.73 in 4.0 mi West 18.4 mph 23.0 mph 0.00 in Snow Light Snow
5:53 AM 33.1 °F 22.6 °F 32.2 °F 96% 29.74 in 7.0 mi West 16.1 mph - 0.00 in Snow Light Snow
6:02 AM 33.8 °F 22.8 °F 32.0 °F 93% 29.73 in 9.0 mi West 18.4 mph - 0.00 in Snow Light Snow
7:00 AM 32.0 °F 20.8 °F 32.0 °F 100% 29.74 in 9.0 mi West 17.3 mph - 0.00 in Snow Light Snow
7:40 AM 32.0 °F 21.2 °F 32.0 °F 100% 29.74 in 7.0 mi West 16.1 mph - 0.00 in Snow Light Snow
7:53 AM 32.7 °F 22.1 °F 31.3 °F 94% 29.75 in 7.0 mi West 16.1 mph - 0.00 in Snow Light Snow
7:56 AM 33.8 °F 23.2 °F 32.0 °F 93% 29.75 in 7.0 mi West 17.3 mph - 0.00 in Snow Light Snow
8:10 AM 33.8 °F 23.2 °F 32.0 °F 93% 29.74 in 7.0 mi WSW 17.3 mph - 0.00 in Snow Light Snow
8:19 AM 33.8 °F 23.9 °F 32.0 °F 93% 29.75 in 7.0 mi West 15.0 mph 23.0 mph 0.00 in   Overcast
8:27 AM 33.8 °F 23.5 °F 32.0 °F 93% 29.75 in 4.0 mi WSW 16.1 mph 23.0 mph 0.00 in Snow Light Snow
8:53 AM 32.9 °F 22.0 °F 31.5 °F 94% 29.76 in 7.0 mi West 17.3 mph - 0.00 in Snow Light Snow
9:06 AM 33.8 °F 22.8 °F 32.0 °F 93% 29.75 in 3.0 mi West 18.4 mph - 0.00 in Snow Light Snow
9:15 AM 33.8 °F 22.5 °F 32.0 °F 93% 29.75 in 6.0 mi West 19.6 mph - 0.00 in Snow Light Snow
9:53 AM 34.0 °F 24.2 °F 32.0 °F 92% 29.76 in 4.0 mi WSW 15.0 mph - 0.00 in   Overcast
10:22 AM 33.8 °F 23.2 °F 32.0 °F 93% 29.76 in 5.0 mi WSW 17.3 mph - 0.00 in   Overcast
10:32 AM 33.8 °F 23.2 °F 32.0 °F 93% 29.76 in 3.0 mi WSW 17.3 mph - 0.00 in Snow Light Snow
10:45 AM 33.8 °F 23.5 °F 32.0 °F 93% 29.76 in 1.0 mi WSW 16.1 mph - 0.00 in Snow Light Snow
10:53 AM 34.0 °F 24.2 °F 31.5 °F 90% 29.77 in 1.0 mi WSW 15.0 mph - 0.00 in Snow Light Snow
11:53 AM 34.0 °F 28.0 °F 32.2 °F 93% 29.78 in 2.0 mi SW 6.9 mph - 0.02 in Snow Light Snow
11:58 AM 33.8 °F 27.7 °F 32.0 °F 93% 29.78 in 3.0 mi SW 6.9 mph - 0.00 in Snow Light Snow
12:53 PM 34.0 °F 28.8 °F 32.2 °F 93% 29.81 in 7.0 mi NNE 5.8 mph - 0.00 in Snow Light Snow
1:53 PM 36.0 °F 27.1 °F 36.0 °F 100% 29.84 in 7.0 mi NNE 13.8 mph - 0.00 in   Overcast
2:53 PM 37.0 °F 28.5 °F 36.0 °F 96% 29.88 in 10.0 mi North 13.8 mph - N/A   Overcast
3:23 PM 35.6 °F 27.1 °F 35.6 °F 100% 29.89 in 1.0 mi North 12.7 mph - N/A   Mostly Cloudy
3:30 PM 37.4 °F 28.5 °F 35.6 °F 93% 29.90 in 0.8 mi North 15.0 mph - 0.00 in   Mostly Cloudy
3:43 PM 35.6 °F 26.2 °F 35.6 °F 100% 29.90 in 3.0 mi North 15.0 mph - 0.00 in   Mostly Cloudy
3:53 PM 37.9 °F 30.0 °F 35.1 °F 89% 29.91 in 10.0 mi North 12.7 mph - 0.00 in   Mostly Cloudy
4:11 PM 37.4 °F 29.3 °F 35.6 °F 93% 29.92 in 10.0 mi North 12.7 mph - N/A   Mostly Cloudy
4:19 PM 37.4 °F 28.9 °F 35.6 °F 93% 29.92 in 1.8 mi North 13.8 mph - 0.00 in Snow Light Snow
4:29 PM 37.4 °F 27.2 °F 35.6 °F 93% 29.93 in 3.0 mi NNE 19.6 mph 26.5 mph 0.00 in Snow Light Snow
4:53 PM 36.0 °F 25.0 °F 33.1 °F 89% 29.95 in 5.0 mi North 20.7 mph 27.6 mph 0.00 in   Overcast
5:33 PM 35.6 °F 24.8 °F 32.0 °F 87% 29.97 in 9.0 mi NNE 19.6 mph - 0.00 in   Overcast
5:53 PM 35.1 °F 23.5 °F 30.9 °F 85% 29.99 in 6.0 mi NNE 21.9 mph 28.8 mph 0.00 in   Overcast
6:37 PM 33.8 °F 23.9 °F 28.4 °F 81% 30.02 in 10.0 mi NNE 15.0 mph - N/A   Overcast
6:53 PM 34.0 °F 23.8 °F 28.9 °F 82% 30.03 in 10.0 mi NNE 16.1 mph - N/A   Overcast
7:37 PM 33.8 °F 23.5 °F 28.4 °F 81% 30.06 in 1.8 mi NNE 16.1 mph - 0.00 in Snow Light Snow
7:53 PM 33.1 °F 21.5 °F 28.9 °F 85% 30.07 in 5.0 mi NNE 19.6 mph - 0.00 in Snow Light Snow
8:01 PM 33.8 °F 23.5 °F 28.4 °F 81% 30.07 in 5.0 mi NNE 16.1 mph - 0.00 in Snow Light Snow
8:53 PM 32.0 °F 21.2 °F 27.0 °F 82% 30.11 in 9.0 mi NNE 16.1 mph - 0.00 in   Overcast
9:36 PM 30.2 °F 19.8 °F 26.6 °F 86% 30.13 in 3.0 mi NNE 13.8 mph - 0.00 in Snow Light Snow
9:53 PM 32.0 °F 21.6 °F 27.0 °F 82% 30.14 in 6.0 mi NNE 15.0 mph - 0.00 in Snow Light Snow
10:53 PM 32.0 °F 21.6 °F 25.0 °F 75% 30.17 in 10.0 mi NNE 15.0 mph - 0.00 in   Overcast
11:53 PM 32.0 °F 21.2 °F 26.1 °F 79% 30.20 in 7.0 mi NNE 16.1 mph - 0.00 in Snow Light Snow